Location: Unspecified
(0.0000°N, 0.0000°E)
Time: 03:50:38

AO-40 - Visible Passes

Search period start: 06 October 2015 00:00
Search period end: 16 October 2015 00:00
Orbit: 1029 x 58791 km, 9.4° (Epoch: 03 October)

Date Brightness Start Highest point End Pass type
(mag) Time Alt. Az. Time Alt. Az. Time Alt. Az.
08 Oct ? 02:31:25 10° W 21:25:53 79° SSE 11:22:30 10° W visible
09 Oct ? 16:02:37 10° W 16:12:00 41° S 11:08:34 10° E daylight
12 Oct ? 02:02:48 10° W 20:57:37 77° SSE 11:15:37 10° W visible
13 Oct ? 15:33:13 10° W 15:44:13 43° S 10:40:48 10° E daylight
